Date,TemperatureHighF,TemperatureAvgF,TemperatureLowF,DewpointHighF,DewpointAvgF,DewpointLowF,HumidityHigh,HumidityAvg,HumidityLow,PressureMaxIn,PressureMinIn,WindSpeedMaxMPH,WindSpeedAvgMPH,GustSpeedMaxMPH,PrecipitationSumIn
2013-1-1,44,37,32,44,37,32,100,100,100,30.36,30.22,0,0,2,0.01
2013-1-2,43,35,32,43,35,32,100,100,100,30.23,30.10,0,0,1,0.01
2013-1-3,54,44,33,50,43,33,100,96,80,30.30,30.05,2,0,10,0.13
2013-1-4,50,45,39,49,45,39,100,100,97,30.32,30.16,0,0,2,0.01
2013-1-5,50,45,39,50,45,39,100,100,98,30.21,30.12,0,0,4,0.18
2013-1-6,50,46,43,50,46,43,100,99,96,30.25,30.18,0,0,3,0.09
2013-1-7,52,50,49,52,50,49,100,100,100,30.30,30.17,1,0,3,0.29
2013-1-8,51,50,50,51,50,49,100,99,97,30.30,30.00,2,1,4,0.04
2013-1-9,51,45,37,50,44,37,100,96,83,30.06,29.87,2,1,5,0.38
2013-1-10,45,41,36,44,39,36,100,95,75,30.24,30.05,2,0,4,0.58
2013-1-11,44,40,33,43,39,33,100,97,86,30.32,30.19,2,0,2,0.13
2013-1-12,43,36,30,39,34,30,100,95,74,30.40,30.29,1,0,2,0.00
2013-1-13,34,30,29,32,29,28,99,98,90,30.45,30.38,0,0,1,0.00
2013-1-14,42,35,28,38,33,28,99,93,73,30.55,30.50,1,0,2,0.00
2013-1-15,47,35,28,43,33,28,100,95,83,30.59,30.53,2,0,6,0.00
2013-1-16,50,43,31,45,41,31,100,92,81,30.51,30.40,1,0,2,0.01
2013-1-19,43,42,41,43,42,41,100,100,98,30.30,30.27,0,0,1,0.00
2013-1-20,44,36,31,43,36,31,100,100,98,30.29,30.19,1,0,1,0.00
2013-1-21,45,36,30,44,36,30,100,99,95,30.22,30.09,1,0,1,0.01
2013-1-22,57,43,34,49,40,34,100,89,50,30.09,29.92,1,0,2,0.00
2013-1-23,47,44,37,47,44,37,100,100,99,30.20,29.88,1,0,1,0.94
2013-1-24,52,43,34,51,43,34,100,99,96,30.21,30.11,1,0,4,0.07
2013-1-25,50,48,41,50,48,41,100,100,97,30.17,30.04,2,0,6,0.47
2013-1-26,47,44,42,46,44,42,100,99,91,30.17,30.03,1,0,2,0.33
2013-1-27,46,42,39,46,42,39,100,100,95,30.26,30.17,1,0,2,0.70
2013-1-28,48,46,43,47,45,43,100,98,90,30.39,30.20,2,0,4,0.08
2013-1-29,48,46,41,48,46,41,100,99,94,30.57,30.39,2,0,3,0.18
2013-1-30,51,44,40,50,44,40,100,100,95,30.58,30.49,0,0,1,0.01
2013-1-31,48,41,37,48,41,37,100,100,98,30.48,30.35,1,0,1,0.00
2013-2-1,53,39,33,50,38,33,100,98,88,30.35,30.21,2,0,4,0.00
2013-2-2,52,40,36,50,40,36,100,99,86,30.36,30.22,0,0,4,0.00
2013-2-3,52,48,42,48,46,42,100,96,82,30.35,30.25,0,0,0,0.00
2013-2-4,50,44,37,48,43,37,100,96,89,30.25,30.03,2,0,2,0.00
2013-2-5,52,48,46,50,47,44,100,96,91,30.06,29.98,1,1,3,0.13
2013-2-7,43,41,38,43,41,38,100,100,99,30.06,30.00,1,1,2,0.78
2013-2-8,36,34,32,36,34,32,100,100,100,30.21,30.15,0,0,0,0.00
2013-2-9,49,42,34,44,40,34,100,94,74,30.33,30.29,1,0,3,0.00
2013-2-10,50,46,42,46,44,42,100,91,74,30.33,30.30,2,0,3,0.01
2013-2-11,50,47,43,46,43,40,99,87,68,30.45,30.33,2,0,2,0.04
2013-2-12,51,48,46,50,48,46,100,100,96,30.55,30.45,0,0,2,0.14
2013-2-13,52,48,45,51,48,45,100,98,89,30.54,30.49,1,0,2,0.01
2013-2-14,48,46,44,48,46,44,100,99,98,30.43,30.42,0,0,1,0.00
2013-2-15,55,48,37,50,46,37,100,95,83,30.41,30.22,2,0,2,0.00
2013-2-16,51,48,45,48,46,42,100,95,85,30.35,30.29,1,0,2,0.02
2013-2-17,49,44,36,44,41,36,100,89,72,30.33,30.11,2,0,2,0.02
2013-2-18,49,41,35,44,40,34,99,94,84,30.10,29.76,1,0,2,0.09
2013-2-19,46,42,37,44,41,37,100,96,87,30.05,29.66,1,0,2,0.46
2013-2-20,48,42,35,46,41,35,100,97,85,30.18,30.05,1,0,3,0.25
2013-2-21,46,42,38,46,41,38,100,100,95,30.31,30.18,0,0,1,0.01
2013-2-22,47,47,47,47,47,47,100,100,100,30.11,30.07,3,2,3,0.58
2013-2-23,38,37,37,37,37,36,99,99,98,30.49,30.47,0,0,0,0.11
2013-2-24,51,42,34,46,40,34,100,91,69,30.48,30.20,1,0,3,0.06
2013-2-25,50,44,35,47,42,34,100,93,70,30.44,30.18,2,0,3,0.26
2013-2-26,49,40,32,42,38,32,100,92,68,30.44,30.30,1,0,1,0.00
2013-2-27,54,49,42,51,46,41,100,91,71,30.32,30.25,2,0,3,0.29
2013-2-28,52,51,51,52,51,51,100,100,99,30.51,30.25,2,1,4,0.38
2013-3-1,57,51,48,55,51,48,100,98,91,30.51,30.36,1,0,1,0.00
2013-3-2,53,50,46,51,49,46,100,98,91,30.35,30.25,1,0,2,0.01
2013-3-3,54,45,36,45,42,36,98,87,68,30.31,30.19,2,1,4,0.00
2013-3-4,36,33,32,35,33,32,99,99,98,30.19,30.08,0,0,0,0.00